sat.trackr.live / text

‹ back to catalog

LEMUR-1

NORAD 40044 · 2014-033AL

PAYLOAD ACTIVE UNKNOWN

§ Identity

Operator
Country
US
Launch date
2014-06-19
Launch site
DLS
Launch vehicle
Mass (kg)
RCS (m²)
0.06

Purposes: earth_obs

External: N2YO · Heavens-Above · Gunter

§ Orbital elements

Epoch: 2026-09-19T16:05:23.265024Z

Period
96.93 min
Inclination
97.8010°
Eccentricity
0.0049127
Mean motion
14.85538328 rev/d
Perigee alt
577.6 km
Apogee alt
646.2 km
Semi-major
6,990.0 km
B*
1.7621e-4
RAAN
50.4710°
Arg perigee
127.1703°
Mean anomaly
233.4014°
Rev number
65,949

§ Raw data

LEMUR-11 40044U 14033AL  26262.67040816  .00001500  00000+0  17621-3 0  99982 40044  97.8010  50.4710 0049127 127.1703 233.4014 14.85538328659497

JSON: /api/v1/satellites/40044 · /tle

For live sub-satellite position, see the globe view (requires WebGL).

§ Visibility from observer

Set your observer location to see the next 7 days of passes ≥ 10°. The values pass through the URL so the page stays shareable.

No JS? Fill the form by hand. The geolocation button needs JavaScript.